星链-30885 (STARLINK-30885 )

导读

STARLINK-30885是美国太空探索技术公司(SpaceX)于2023年11月18日发射的星链(Starlink)项目卫星,属于低轨卫星互联网星座的组成部分。该卫星运行在近地轨道,主要为全球偏远地区、海洋等网络覆盖薄弱区域提供高速互联网接入服务,目前仍在轨正常工作,助力星链构建全球覆盖的卫星通信网络。

Basic Information
目录编号:
58361
目录名称:
STARLINK-30885
国际标识:
2023-177L
轨道中心:
EARTH
卫星名称:
星链-30885
卫星全名:
星链-30885 (STARLINK-30885 )
卫星状态:
在轨 (已飞行1028 天)
发射日期:
2023-11-18 UTC
国别 :
美国 (US)
星等 :
--
This satellite is enrolled in the Space Conjunction Data Service (SCDS) and the current flight risk assessment level is: High Risk
Orbit Information
数据来源 国际轨道数据
星历时间: 2026-09-10T04:24:44+0800
1天前
查看轨道信息
半长轴: 6861.279km
偏心率: 0.0001493
轨道倾角: 43.005°
近地点辐角 268.837°
升交点赤经 30.461°
平近点角 91.231°
近地点: 482.117km
远地点: 484.167km
周期: 94.269分钟
每日圈数: 15.275492
Detailed Information
固有亮度:
5
最大亮度:
0.3
卫星平台:
Starlink v2.0 mini
覆盖范围:
全球
运营商:
太空探索技术公司
运营商所在国:
美国
制造商(研发单位):
太空探索技术公司
制造商所在国:
美国
使用方式:
暂无
Satellite Introduction
星链(Starlink)计划是由太空探索技术公司(SpaceX)提出的一个巨型低轨卫星互联网星座项目,计划在2019年至2024年间在太空搭建由约1.2万颗卫星组成的“星链”网络,其中1584颗将部署在地球上空550千米处的近地轨道,并从2020年开始工作。该卫星仍在工作。
2D Orbit Map
3D Orbit Map
Orbit Altitude Analysis Chart
Orbit Inclination Analysis Chart
Orbit Comprehensive Analysis Chart
View Comprehensive Chart
Conjunction Data List
Event ID Objects TCA Miss Dist (km) Collision Risk Probability Collision Risk Index (CRI) Action
CDM_260912-064405-836105-951321
2026-09-12T
06:44:44+0000
0.221 km
中距离
5.326282E-4 高风险 0.9
CDM_260913-060805-650305-836121
2026-09-13T
06:08:12+0000
0.573 km
远距离
1.137425E-4 高风险 0.76
CDM_260911-111605-836106-365721
2026-09-11T
11:16:33+0000
0.412 km
远距离
8.753401E-5 中风险 0.74
CDM_260913-012205-836106-796021
2026-09-13T
01:22:04+0000
0.656 km
远距离
8.110667E-5 中风险 0.73
CDM_260912-171205-836105-863922
2026-09-12T
17:12:04+0000
0.679 km
远距离
5.39184E-5 中风险 0.7
CDM_260913-074205-650305-836121
2026-09-13T
07:42:22+0000
0.757 km
远距离
5.070475E-5 中风险 0.69
CDM_260913-080605-836105-863921
2026-09-13T
08:06:34+0000
0.695 km
远距离
5.032217E-5 中风险 0.69
CDM_260912-042605-836106-716421
2026-09-12T
04:26:58+0000
0.732 km
远距离
2.88536E-5 中风险 0.64
CDM_260912-153705-836105-863922
2026-09-12T
15:37:55+0000
0.836 km
远距离
2.78376E-5 中风险 0.64
CDM_260912-012005-836106-732921
2026-09-12T
01:20:07+0000
0.716 km
远距离
2.34041E-5 中风险 0.62
Miss Distance Evolution Trend with All Objects
Collision Probability Evolution Trend with All Objects